Regional Weather Roundup
Issued by NWS San Diego, CA

Home | Current Version | Previous Version | Text Only | Print | Product List | Glossary On
Versions: 1 2 3 4 5 6 7 8 9 10 11 12 13 14 15 16 17 18 19 20 21 22 23 24 25 26 27 28 29 30 31 32 33 34 35 36 37 38 39 40 41 42 43 44 45 46 47 48 49 50
000
ASUS46 KSGX 190211
RWRSGX

SAN DIEGO HOURLY WEATHER ROUNDUP
NATIONAL WEATHER SERVICE SAN DIEGO CA
600 PM PST SUN FEB 18 2018

NOTE: "FAIR" INDICATES FEW OR NO CLOUDS BELOW 12,000 FEET WITH NO
SIGNIFICANT WEATHER AND/OR OBSTRUCTIONS TO VISIBILITY.

CAZ042-043-060-061-PZZ750-775-190300-

GREATER SAN DIEGO AREA

CITY           SKY/WX    TMP DP  RH WIND       PRES   REMARKS
SAN DIEGO AP   MOCLDY    60  50  69 SW9       29.94S
NATIONAL CITY    N/A     60  52  74 SW8       29.95S
CHULA VISTA      N/A     59  53  79 W1        29.85R
IMPERIAL BEACH MOCLDY    61  50  67 SW7       29.94S
BROWN FIELD    PTCLDY    57  51  80 W9        29.93R
MIRAMAR MCAS   PTCLDY    59  49  69 SW6       29.92R
MONTGOMERY FLD PTCLDY    58  50  75 W7        29.93R
GILLESPIE FLD  PTCLDY    59  48  67 SW7       29.92S

$$

NORTH SAN DIEGO COUNTY

CITY           SKY/WX    TMP DP  RH WIND       PRES   REMARKS
CAMP PENDLETON PTCLDY    57  51  80 SW6       29.91S
OCEANSIDE AP   MOCLDY    59  50  72 SW8       29.90F
OCEANSIDE HBR    N/A     59  52  76 S2        29.93F
VISTA            N/A     58  51  77 CALM      29.89S
CARLSBAD       MOCLDY    58  51  78 SW7       29.91S
DEL MAR          N/A     58  52  80 CALM      29.94S
LA JOLLA SCRIP   N/A     58  52  80 S3        29.92S
FALLBROOK        N/A     58  54  87 SW2       29.90F
ESCONDIDO        N/A     58  49  71 SW3       29.92S
SAN MARCOS       N/A     57  50  79 SW5       29.95R
POWAY            N/A     58  50  73 CALM      29.92R

$$

EAST SAN DIEGO COUNTY

CITY           SKY/WX    TMP DP  RH WIND       PRES   REMARKS
RAMONA         CLEAR     52  47  83 W7        29.91S
SANTEE LAKES     N/A     59  50  72 SW3       29.91R
LA MESA          N/A     57  50  76 SW1       29.85S
JAMUL            N/A     57  48  72 W1        29.93R
CAMPO            N/A     52  40  63 W10       29.87F

$$

ORANGE COUNTY AND THE LOS ANGELES BASIN

CITY           SKY/WX    TMP DP  RH WIND       PRES   REMARKS
JOHN WAYNE AP  PTCLDY    59  50  72 S9        29.90S
LAGUNA BEACH     N/A    N/A N/A N/A CALM      29.85S
LAKE FOREST FR   N/A     56  45  65 SW1       29.78S
HUNTINGTON BCH   N/A     59  53  80 SW10      29.90F
LOS ALAMITOS   MOCLDY    58  50  76 W10       29.89S
FULLERTON      PTCLDY    59  51  75 SW5       29.89S
LONG BEACH     PTCLDY    60  50  69 SW8       29.89F
L.A. AP        PTCLDY    58  50  75 W10       29.89F
L.A. DOWNTOWN  CLEAR     58  49  72 CALM      29.88F

$$

THE INLAND EMPIRE

CITY           SKY/WX    TMP DP  RH WIND       PRES   REMARKS
CORONA         CLEAR     60  41  49 MISG        N/A
CHINO          PTCLDY    59  42  53 W13       29.88F
ONTARIO        PTCLDY    58  40  51 SW14      29.87S
SAN BERNARDINO PTCLDY    61  34  36 SW10      29.87S
RIVERSIDE AP   CLEAR     59  41  51 W10       29.86S
MORENO VALLEY    N/A     58  43  57 NW5         N/A
MARCH ARB      CLEAR     57  36  45 S6        29.87S
HORSETHIEF CYN   N/A     57  34  42 CALM      29.87S
PERRIS           N/A     58  40  52 S7        29.79S
HEMET EAST       N/A     54  32  42 SW5       29.94S
FRENCH VALLEY  FAIR      55  41  58 SW15      29.89F
TEMECULA         N/A     58  50  74 SW6       29.93S

$$

SAN BERNARDINO AND RIVERSIDE COUNTY MOUNTAINS

CITY           SKY/WX    TMP DP  RH WIND       PRES   REMARKS
BIG BEAR AP      N/A     34  28  80 SW14G23   29.86S WCI  24

$$

SOUTHERN DESERT INCLUDING THE COACHELLA VALLEY

CITY           SKY/WX    TMP DP  RH WIND       PRES   REMARKS
PALM SPRINGS   PTCLDY    71  35  26 E9        29.73F
THOUSAND PALMS   N/A     69  38  31 NW6       29.71F
PALM DESERT      N/A     70  36  28 CALM        N/A
THERMAL        CLEAR     69  32  25 W3        29.71F
BLYTHE         CLEAR     71  37  28 SW16      29.73S
IMPERIAL AP    CLEAR     68  43  40 W13       29.76S
EL CENTRO NAS  LGT RAIN  69  40  34 W20G29    29.78F
YUMA AZ        CLEAR     70  36  28 S12       29.77F
MEXICALI       CLEAR     68  41  37 S6        29.78S

$$

UPPER DESERT

CITY           SKY/WX    TMP DP  RH WIND       PRES   REMARKS
VICTORVILLE AP CLEAR     55  27  33 SW14G32   29.78F
HESPERIA         N/A     51  32  48 NE9       29.79F
APPLE VALLEY     N/A     53  33  46 N12       29.81F
PALMDALE       CLEAR     54  35  48 W23       29.80S
LANCASTER      CLEAR     53  32  44 SW23G30   29.81S
EDWARDS AFB    CLEAR     55  31  39 SW28G36   29.74F
DAGGETT        CLEAR     62  32  32 SW22G35   29.69S
29 PALMS N     CLEAR     60  33  36 SW25      29.77S
NEEDLES        CLEAR     73  27  18 SW20G25   29.65F

$$

REGIONAL REPORTS

CITY           SKY/WX    TMP DP  RH WIND       PRES   REMARKS
SANTA BARBARA  PTCLDY    58  41  53 NW5       29.86S
SANDBERG       CLEAR     42  35  76 S13       29.85F
LAS VEGAS NV   PTCLDY    65  24  21 S20G30    29.53F
PHOENIX AZ     MOCLDY    70  39  32 W7        29.78F
TIJUANA        PTCLDY   N/A N/A N/A SW6       29.95R
ENSENADA NW      N/A     61  32  34 CALM      29.87S

$$

OFFSHORE ISLANDS

CITY           SKY/WX    TMP DP  RH WIND       PRES   REMARKS
CATALINA ARPT  MOCLDY    51  46  83 W16       29.90F
SAN NICOLAS IS PTCLDY    54  32  43 W28G37    29.92S

$$

MARINE AND OFFSHORE BUOY REPORTS

STATION/POSITION SKY/WX   TEMP    WIND        PRES    VSBY  SWELL
                          AIR SEA DIR/SP/G                  HT/PER/DIR
                          (F)     (DEG/KT/KT) (MB)    (MI)  (FT/S/D)
TANNER BANKS               57 61              1013.7F
S CLEMENTE BASIN           59 62  270/ 14/ 16 1013.4S         3/270/14
SAN NICOLAS IS.               59                N/A           3/300/15
SO. S. ROSA ISLA           55 58  310/ 23/ 27 1013.2F         3/290/15
W. S. BARBARA CH           54 58  310/ 23/ 29 1013.3F         3/290/15
M. S. BARBARA CH           57 58  280/ 23/ 29 1012.3          2/300/14
S. MONICA BASIN               61  330/  6/  8 1011.8F         2/240/14
S PEDRO CHANNEL               61                N/A           2/260/14
CMP PENDLETON NS              61                N/A           2/220/14
OCEANSIDE OFFSHR              61                N/A           2/200/14
TORREY PINES OTR              62                N/A           2/240/14
SAN DIEGO BAY                 66              1014.0S
POINT LOMA SOUTH              62                N/A           2/200/13

$$




USA.gov is the U.S. government's official web portal to all federal, state and local government web resources and services.